Weather reports worldwide

Advertisment
Blencathra, United Kingdom (99143): temperature & dewpoint: 16.07.2019 03:00:00 - 22.07.2019 03:00:00 (BST)Blencathra, United Kingdom (99143): precipitation: 16.07.2019 03:00:00 - 22.07.2019 03:00:00 (BST)
Date & Time tt [°C] td [°C] rr [mm]
22.07.2019 03:00:00 17,0 16,7 1,4
22.07.2019 02:00:00 17,2 16,8 1,8
22.07.2019 01:00:00 16,4 16,2 5,6
22.07.2019 00:00:00 15,7 15,5 4,8
21.07.2019 23:00:00 14,9 14,5 4,4
21.07.2019 22:00:00 14,5 13,7 3,4
21.07.2019 21:00:00 14,7 13,7 3,2
21.07.2019 20:00:00 14,8 13,6 1,2
21.07.2019 19:00:00 16,0 12,5 0,0
21.07.2019 18:00:00 16,6 11,9 0,0
21.07.2019 17:00:00 16,8 11,8 0,0
21.07.2019 16:00:00 16,3 12,4 0,0
21.07.2019 15:00:00 16,3 12,5 0,0
21.07.2019 14:00:00 16,2 11,9 0,0
21.07.2019 13:00:00 18,4 12,4 0,0
21.07.2019 12:00:00 16,1 11,3 0,0
21.07.2019 11:00:00 16,2 11,1 0,0
21.07.2019 10:00:00 15,7 11,8 0,0
21.07.2019 09:00:00 15,6 12,0 0,0
21.07.2019 08:00:00 14,8 11,3 0,0
21.07.2019 07:00:00 14,4 11,6 0,0
21.07.2019 06:00:00 14,1 11,4 0,0
21.07.2019 05:00:00 13,3 10,9 0,0
21.07.2019 04:00:00 12,9 10,3 0,0
21.07.2019 03:00:00 13,2 9,7 0,0
21.07.2019 02:00:00 12,7 9,4 0,0
21.07.2019 01:00:00 12,6 9,6 0,0
21.07.2019 00:00:00 12,9 9,3 0,0
20.07.2019 23:00:00 12,5 9,4 0,0
20.07.2019 22:00:00 13,3 9,9 0,0
20.07.2019 21:00:00 13,8 9,7 0,0
20.07.2019 20:00:00 14,5 9,8 0,0
20.07.2019 19:00:00 15,7 10,2 0,0
20.07.2019 18:00:00 16,5 10,2 0,0
20.07.2019 17:00:00 15,6 10,7 0,0
20.07.2019 16:00:00 15,1 12,0 0,0
20.07.2019 15:00:00 14,8 13,1 0,0
20.07.2019 14:00:00 14,4 13,8 0,8
20.07.2019 13:00:00 15,2 14,2 0,0
20.07.2019 12:00:00 16,3 14,7 0,0
20.07.2019 11:00:00 15,6 15,1 0,0
20.07.2019 10:00:00 15,1 14,6 2,2
20.07.2019 09:00:00 15,0 13,9 0,2
20.07.2019 08:00:00 14,8 13,3 0,0
20.07.2019 07:00:00 14,3 13,3 0,0
20.07.2019 06:00:00 14,3 13,2 0,0
20.07.2019 05:00:00 14,5 13,3 1,8
20.07.2019 04:00:00 14,9 14,4 0,8
20.07.2019 03:00:00 14,9 14,5 3,6
20.07.2019 02:00:00 15,1 14,3 0,4
20.07.2019 01:00:00 15,3 14,5 0,6
20.07.2019 00:00:00 15,2 14,2 1,2
19.07.2019 23:00:00 15,4 14,4 1,8
19.07.2019 22:00:00 15,7 13,7 0,0
19.07.2019 21:00:00 15,7 14,7 0,4
19.07.2019 20:00:00 16,3 14,9 0,0
19.07.2019 19:00:00 15,8 15,3 1,4
19.07.2019 18:00:00 16,0 14,8 0,0
19.07.2019 17:00:00 15,9 14,7 0,0
19.07.2019 16:00:00 15,0 14,1 1,0
19.07.2019 15:00:00 14,5 13,0 0,8
19.07.2019 14:00:00 15,6 12,6 0,0
19.07.2019 13:00:00 15,3 11,9 0,0
19.07.2019 12:00:00 16,1 12,5 0,0
19.07.2019 11:00:00 14,5 12,1 0,0
19.07.2019 10:00:00 13,7 12,6 0,0
19.07.2019 09:00:00 14,7 11,9 0,0
19.07.2019 08:00:00 14,0 12,7 0,0
19.07.2019 07:00:00 13,3 11,8 0,0
19.07.2019 06:00:00 12,9 11,9 0,0
19.07.2019 05:00:00 13,0 12,2 0,0
19.07.2019 04:00:00 12,8 11,7 0,4
19.07.2019 03:00:00 13,0 11,7 0,0
19.07.2019 02:00:00 13,0 11,4 0,0
19.07.2019 01:00:00 13,2 11,2 0,0
19.07.2019 00:00:00 12,7 10,9 0,0
18.07.2019 23:00:00 12,7 11,2 0,0
18.07.2019 22:00:00 12,5 11,2 0,0
18.07.2019 21:00:00 12,8 11,5 0,4
18.07.2019 20:00:00 14,0 10,6 0,0
18.07.2019 19:00:00 14,0 11,0 0,0
18.07.2019 18:00:00 13,6 12,2 0,4
18.07.2019 17:00:00 15,0 10,4 0,0
18.07.2019 16:00:00 15,5 10,2 0,0
18.07.2019 15:00:00 17,6 12,6 0,0
18.07.2019 14:00:00 14,6 11,1 0,0
18.07.2019 13:00:00 14,5 11,8 0,0
18.07.2019 12:00:00 14,2 11,1 0,0
18.07.2019 11:00:00 14,0 11,5 0,0
18.07.2019 10:00:00 12,8 11,8 0,2
18.07.2019 09:00:00 12,1 11,3 0,8
18.07.2019 08:00:00 12,4 11,3 0,0
18.07.2019 07:00:00 12,0 11,2 0,0
18.07.2019 06:00:00 11,4 10,7 0,0
18.07.2019 05:00:00 11,1 10,5 0,0
18.07.2019 04:00:00 10,8 10,0 0,0
18.07.2019 03:00:00 11,6 10,9 0,0
18.07.2019 02:00:00 11,7 11,1 0,6
18.07.2019 01:00:00 12,7 12,5 1,4
18.07.2019 00:00:00 14,1 14,0 0,8
17.07.2019 23:00:00 13,9 13,8 0,4
17.07.2019 22:00:00 14,1 13,6 0,0
17.07.2019 21:00:00 14,4 13,3 0,0
17.07.2019 20:00:00 14,3 12,8 0,0
17.07.2019 19:00:00 14,5 12,8 0,0
17.07.2019 18:00:00 14,3 13,1 0,0
17.07.2019 17:00:00 14,3 11,9 0,0
17.07.2019 16:00:00 14,3 12,5 0,0
17.07.2019 15:00:00 14,9 11,6 0,0
17.07.2019 14:00:00 16,2 11,4 0,0
17.07.2019 13:00:00 16,8 12,2 0,0
17.07.2019 12:00:00 16,8 12,0 0,0
17.07.2019 11:00:00 16,2 13,1 0,0
17.07.2019 10:00:00 16,6 12,4 0,0
17.07.2019 09:00:00 15,5 12,9 0,0
17.07.2019 08:00:00 15,2 12,7 0,0
17.07.2019 07:00:00 13,9 12,1 0,0
17.07.2019 06:00:00 14,0 11,7 0,0
17.07.2019 05:00:00 14,1 11,0 0,0
17.07.2019 04:00:00 13,2 9,5 0,0
17.07.2019 03:00:00 14,0 10,3 0,0
17.07.2019 02:00:00 14,3 9,5 0,0
17.07.2019 01:00:00 13,9 8,8 0,0
17.07.2019 00:00:00 14,7 9,8 0,0
16.07.2019 23:00:00 14,6 11,3 0,0
16.07.2019 22:00:00 15,5 11,9 0,0
16.07.2019 21:00:00 16,6 12,4 0,0
16.07.2019 20:00:00 18,3 13,4 0,0
16.07.2019 19:00:00 18,4 13,4 0,0
16.07.2019 18:00:00 19,3 13,9 0,0
16.07.2019 17:00:00 18,8 12,2 0,0
16.07.2019 16:00:00 19,1 12,4 0,0
16.07.2019 15:00:00 20,2 12,0 0,0
16.07.2019 14:00:00 21,2 13,1 0,0
16.07.2019 13:00:00 20,9 13,6 0,0
16.07.2019 12:00:00 20,4 13,4 0,0
16.07.2019 11:00:00 18,8 13,0 0,0
16.07.2019 10:00:00 18,3 13,0 0,0
16.07.2019 09:00:00 17,7 13,6 0,0
16.07.2019 08:00:00 16,0 12,2 0,0
16.07.2019 07:00:00 14,7 11,7 0,0
16.07.2019 06:00:00 14,0 11,6 0,0
16.07.2019 05:00:00 13,6 11,2 0,0
16.07.2019 04:00:00 14,1 11,1 0,0
16.07.2019 03:00:00 14,2 11,0 0,0

tt = temperature
td = dewpoint
rr = precipitation

Next stations